Location: Wanzleben
(52.0609°N, 11.4408°E)
Time: 11:35:42
(UTC+00:00)

USA 186 - Pass Details

Date: 18 September 2020
Orbit: 261 x 425 km, 96.9° (Epoch: 12 October)

Event Time Altitude Azimuth Distance (km) Brightness Sun altitude
Exits shadow 18:49:23 - 175° (S) 1,549 4.4 -14.0°
Reaches altitude 10° 18:49:38 10° 175° (S) 1,445 4.2 -14.1°
Maximum altitude 18:52:43 66° 258° (WSW) 455 2.1 -14.5°
Drops below altitude 10° 18:55:58 10° 342° (NNW) 1,520 5.1 -15.0°
Sets 18:58:02 0° 346° (NNW) 2,404 6.2 -15.3°
